EHI
1 3 7 17 38 56 62 67 73 77 81 83 80 76 68 53 34 16 5 1 0 0 0 0 0 0 0 0 0 0 0 0 0 0 0 0 0 0 0 0 0 0 0
5 5 8 19 40 57 65 67 66 66 67 69 69 66 59 45 26 12 4 1 0 0 0 0 0 0 0 0 0 0 0 0 0 0 0 0 0 0 0 0 0 0 0
13 7 8 22 42 60 69 67 58 50 48 50 51 48 41 29 15 5 1 0 0 0 0 0 0 0 0 0 0 0 0 0 0 0 0 0 0 0 0 0 0 0 0
22 11 10 24 43 59 68 65 51 36 30 30 29 26 20 12 5 1 0 0 0 0 0 0 0 0 0 0 0 0 0 0 0 0 0 0 0 0 0 0 0 0 0
27 16 14 27 42 53 61 59 47 31 21 16 13 10 6 2 0 0 0 0 0 0 0 0 0 0 0 0 0 0 0 0 0 0 0 0 0 0 0 0 0 0 0
30 19 17 27 37 47 55 55 48 36 23 14 8 4 2 0 0 0 0 0 0 0 0 0 0 0 0 0 0 0 0 0 0 0 0 0 0 0 0 0 0 0 0
27 19 19 27 34 42 50 52 48 40 28 18 11 6 3 1 1 0 0 0 0 0 0 0 0 0 0 0 0 0 0 0 0 0 0 0 0 0 0 0 0 0 0
24 19 20 27 32 37 43 45 43 37 29 21 13 8 5 3 2 1 0 0 0 0 1 1 0 0 0 0 0 0 0 0 0 0 0 0 0 0 0 0 0 0 0
17 15 16 21 25 28 32 34 32 29 24 18 12 9 7 4 3 1 0 0 0 0 1 1 1 1 0 0 0 0 0 0 0 0 0 0 0 1 1 0 0 0 0
7 7 9 12 15 17 19 20 22 20 17 14 11 9 6 4 2 1 1 0 0 0 1 1 1 1 1 0 0 0 1 1 1 0 0 0 0 1 2 1 0 0 0
1 2 3 6 7 9 10 12 14 15 14 13 10 8 5 2 1 0 0 0 0 0 0 0 1 1 1 0 0 2 5 5 2 0 0 0 0 1 2 2 1 1 1
2 2 1 2 3 4 5 7 9 10 11 10 9 8 6 3 2 1 1 0 0 0 0 1 1 1 2 2 3 4 8 8 4 1 0 0 0 1 2 3 3 2 2
9 7 4 3 2 2 2 3 4 5 6 6 7 10 10 7 5 4 2 1 0 0 0 1 2 3 4 5 6 7 8 8 5 2 0 0 0 0 1 3 3 3 4
21 16 10 6 4 3 2 2 2 3 4 4 6 10 11 9 6 4 3 2 1 0 0 1 2 3 4 6 6 6 6 7 5 3 1 0 0 0 1 2 3 4 5
28 20 12 7 5 4 3 3 3 3 4 4 5 8 9 6 3 2 2 2 2 1 1 1 1 2 3 3 3 3 5 4 2 1 1 1 1 1 0 1 2 5 7
21 15 8 5 3 3 3 3 4 4 3 3 4 6 5 3 2 1 2 2 2 2 1 1 0 0 1 1 1 2 3 3 1 0 0 1 2 2 1 1 2 5 7
8 6 4 3 2 2 3 3 3 3 2 3 3 3 3 2 1 2 3 2 1 1 1 0 0 0 0 0 0 1 1 1 0 0 0 0 1 1 1 2 3 5 6
1 2 2 2 1 2 3 3 2 1 2 2 2 2 2 1 1 2 3 2 0 0 0 0 0 0 0 0 0 0 0 0 0 0 0 0 0 0 0 1 3 4 4
1 1 2 1 1 1 1 1 1 0 1 1 1 1 1 0 0 1 1 1 0 0 0 0 0 0 0 0 0 0 0 0 0 0 0 0 0 0 0 1 2 3 2
0 1 1 0 0 0 0 0 0 0 0 0 0 0 0 0 0 0 0 0 0 0 0 0 0 0 0 0 0 0 0 0 0 0 0 0 0 0 0 1 2 2 1
0 0 0 0 0 0 0 0 0 0 0 0 0 0 0 0 0 0 0 0 0 0 0 0 0 0 0 0 0 0 0 0 0 0 0 0 0 0 0 0 1 1 1
0 0 0 0 0 0 0 0 0 0 0 0 0 0 0 0 0 0 0 0 0 0 0 0 0 0 0 0 0 0 0 0 0 0 0 0 0 0 0 0 0 0 1
0 0 0 0 0 0 0 0 0 0 0 0 0 0 0 0 0 0 0 0 0 0 0 0 0 0 0 0 0 0 0 0 0 0 0 0 0 0 0 0 0 0 0
0 0 0 0 0 0 0 0 0 0 0 0 0 0 0 0 0 0 0 0 0 0 0 0 0 0 0 0 0 0 0 0 0 0 0 0 0 0 0 0 0 0 0
0 0 0 0 0 0 0 0 0 0 0 0 0 0 0 0 0 0 0 0 0 0 0 0 0 0 0 0 0 0 0 0 0 0 0 0 0 0 0 0 0 0 0
0 0 0 0 0 0 0 0 0 0 0 0 0 0 0 0 0 0 0 0 0 0 0 0 0 0 0 0 0 0 0 0 0 0 0 0 0 0 0 0 0 0 0
Wind_Speed
6 7 14 16 16 17 17 17 17 17 17 16 16 16 16 16 15 15 14 13 12 11 10 9 8 8 8 8 9 10 11 11 11 11 12 12 13 13 14 14 14 12 17
10 9 14 15 16 16 17 17 17 16 16 16 16 16 15 15 15 14 13 12 11 10 10 9 8 8 8 9 9 10 10 11 11 11 11 11 13 13 13 14 14 10 16
12 9 12 14 15 16 16 16 16 16 15 15 15 14 14 14 14 13 12 12 11 10 9 9 8 8 8 8 9 9 10 10 10 10 10 7 9 13 13 13 14 15 15
11 8 9 15 15 15 15 15 15 15 14 14 14 13 13 13 12 12 11 11 10 10 9 9 8 8 8 8 8 8 9 9 9 9 5 5 6 12 13 14 14 14 15
10 7 10 16 15 14 14 14 14 14 13 13 12 12 12 11 11 10 10 10 9 9 9 8 8 8 8 8 8 8 8 8 9 7 3 3 4 11 13 14 14 14 14
9 7 9 15 14 14 13 13 13 12 12 11 11 11 10 10 10 9 9 9 8 8 8 8 8 8 8 8 8 8 7 8 7 4 3 3 4 10 13 14 14 14 14
9 6 8 14 13 13 12 12 12 12 11 11 10 10 9 9 9 9 9 8 8 8 9 9 8 8 8 8 8 8 7 7 5 4 3 4 5 9 13 13 14 13 14
9 7 7 13 13 12 12 11 11 11 11 10 10 10 9 9 9 9 8 8 8 8 8 9 9 9 9 8 8 8 7 7 5 5 5 5 7 10 13 13 13 13 13
7 6 5 6 8 11 11 10 10 10 9 9 9 9 9 9 9 9 9 9 9 9 9 9 10 10 9 9 9 8 8 8 4 3 5 5 9 12 13 14 14 14 14
6 5 4 4 4 4 4 8 9 8 8 8 8 8 9 9 9 9 8 9 10 10 10 11 11 11 11 10 10 10 9 8 4 4 3 6 12 14 15 15 15 15 15
6 4 3 4 3 3 2 4 6 7 7 7 6 8 7 3 3 4 7 10 11 11 12 12 12 12 12 11 12 11 9 4 4 4 4 7 12 15 16 16 16 16 16
6 5 3 3 2 2 2 1 1 1 1 2 1 2 1 1 2 4 5 10 11 11 12 13 13 12 10 5 8 11 5 6 5 5 5 10 12 15 17 17 17 18 17
5 5 4 3 2 2 0 0 0 0 0 1 2 2 2 2 2 3 2 4 5 7 5 7 7 5 5 5 5 5 6 6 5 5 7 13 14 16 18 18 18 19 19
6 4 3 3 2 2 1 0 0 0 1 1 2 2 2 1 1 2 2 2 2 2 3 3 3 5 6 7 8 8 8 6 6 5 7 15 15 17 18 19 19 20 20
6 5 4 2 2 2 1 0 1 0 1 1 1 1 1 1 1 1 1 2 2 2 3 3 3 4 5 6 7 9 10 10 9 8 6 15 17 17 19 20 21 21 21
5 5 4 3 3 3 2 1 1 1 1 1 1 1 1 0 1 1 1 1 2 2 2 3 4 4 4 4 7 8 9 9 9 9 8 10 17 17 18 20 21 21 22
5 4 4 4 3 3 3 2 1 1 1 1 1 2 1 1 0 0 1 1 1 2 2 2 3 3 4 4 6 7 7 8 9 10 9 7 8 15 18 19 19 20 22
4 4 3 4 4 4 3 3 2 2 2 1 1 1 1 1 0 0 0 1 2 1 1 2 2 2 3 4 5 5 6 6 9 9 9 8 8 8 13 18 18 19 22
5 5 4 4 4 3 3 3 2 2 2 1 1 1 1 1 1 0 1 1 2 1 1 2 1 1 3 4 5 5 6 6 8 9 10 11 10 10 8 12 17 18 22
3 4 4 3 3 3 2 2 2 2 2 2 1 1 2 2 1 1 1 2 2 1 1 2 2 2 3 4 5 6 6 7 7 8 10 9 9 11 10 10 9 11 19
3 4 4 3 3 2 1 1 1 0 1 1 2 2 2 2 3 2 2 2 2 2 2 2 2 2 2 2 3 4 5 6 7 7 7 7 9 10 9 10 8 7 7
5 5 4 3 2 2 1 1 1 0 1 1 2 3 3 3 3 3 2 3 2 2 3 2 1 1 2 1 1 3 4 4 3 5 5 6 8 7 9 10 9 9 8
6 6 5 4 3 2 2 1 1 1 2 2 2 3 3 4 4 3 3 3 3 2 3 3 2 2 2 2 1 1 2 3 4 3 4 5 5 5 6 6 9 10 10
7 5 4 4 4 3 3 2 2 1 2 3 2 3 4 4 4 4 4 3 3 2 3 3 2 2 2 2 2 2 3 3 3 4 3 3 4 5 6 6 7 9 10
5 4 4 4 3 3 2 2 2 2 3 2 2 4 4 4 4 4 4 3 2 2 3 3 2 3 3 3 2 2 2 3 4 4 5 4 3 3 5 6 6 7 8
4 4 4 4 3 2 2 2 3 4 4 4 4 4 4 3 4 5 4 3 3 3 3 3 3 4 4 4 3 3 2 2 2 2 4 5 5 4 4 5 6 6 7
Wind_Direction
151 154 151 144 137 132 127 123 120 120 120 120 123 128 133 137 141 144 147 148 148 145 141 134 127 123 121 119 117 116 117 119 121 121 122 122 122 122 122 122 119 119 120
143 150 150 145 140 134 130 127 125 125 126 127 128 131 135 139 143 146 148 150 151 150 145 139 134 131 128 126 124 124 125 126 128 128 127 126 126 127 127 126 124 128 126
139 146 148 145 142 138 134 131 130 130 131 133 134 137 140 144 147 150 153 155 156 155 151 147 142 138 136 133 132 133 134 135 134 131 121 121 131 133 133 132 132 131 130
137 137 145 147 144 142 138 136 135 136 138 139 141 143 146 150 152 155 158 160 161 160 157 155 151 146 145 143 141 141 141 140 136 127 111 125 138 141 140 139 137 136 134
131 132 151 149 148 146 144 142 141 142 144 146 148 151 154 157 161 163 165 166 167 166 165 165 161 157 155 155 153 151 151 148 143 128 117 118 131 149 147 145 144 142 140
128 133 153 150 151 151 151 149 148 148 151 155 157 161 164 167 171 174 175 177 180 179 176 175 174 170 168 168 167 166 165 165 144 133 136 134 144 159 154 153 152 150 147
131 132 148 150 152 155 157 157 157 158 161 165 169 172 177 179 183 187 190 193 197 195 191 188 187 184 184 183 183 181 181 181 145 153 166 167 174 172 165 163 160 158 155
133 129 142 152 155 159 163 166 168 169 173 177 182 185 189 192 196 200 203 209 212 212 209 204 200 198 198 198 198 196 199 201 177 174 178 183 190 187 178 173 169 167 165
123 120 124 143 156 163 168 173 176 178 183 188 193 196 200 203 208 212 217 221 222 223 222 218 214 212 210 210 212 210 211 214 180 180 192 189 198 196 190 183 180 177 174
110 108 111 115 123 138 162 179 183 186 192 198 205 210 213 217 221 225 228 232 235 234 233 229 227 225 221 218 220 222 221 222 203 198 199 198 202 203 200 193 189 186 183
135 111 106 110 113 118 141 192 192 197 202 207 214 223 227 237 245 246 246 241 244 244 243 241 238 235 231 229 228 229 228 211 202 208 209 214 211 210 208 202 197 194 191
156 153 129 124 125 128 172 175 183 214 218 218 221 235 229 226 246 253 265 259 258 257 255 252 247 242 239 231 233 233 223 210 210 215 219 224 223 219 215 209 203 200 198
148 160 148 145 146 155 167 120 166 178 254 239 228 228 227 224 240 255 264 277 282 279 274 270 261 241 229 223 224 224 223 217 216 221 223 226 228 227 222 215 210 205 202
130 138 131 140 143 152 154 91 167 165 262 266 256 237 224 236 245 256 254 260 270 280 282 277 268 255 239 232 227 227 228 227 225 224 225 228 228 229 228 222 216 210 206
119 112 103 114 123 123 108 52 69 4 310 302 308 289 240 238 264 271 276 282 277 279 281 279 272 270 258 247 239 233 231 230 231 227 230 232 231 229 230 229 223 216 211
112 109 107 101 94 94 93 81 74 58 7 12 360 359 357 251 241 264 278 278 283 287 283 282 280 275 269 261 254 247 239 233 234 231 230 236 238 233 230 232 229 222 216
107 104 107 110 95 98 96 85 87 72 54 34 350 8 23 37 334 264 294 308 305 303 302 295 286 276 272 265 261 256 249 241 237 234 233 231 236 239 235 231 229 226 221
114 109 105 107 99 96 94 85 79 67 53 25 6 11 13 15 61 91 309 297 305 317 310 299 292 289 274 268 264 261 256 249 244 238 234 230 228 235 237 234 230 226 223
135 133 128 125 123 112 102 91 84 72 47 18 8 4 353 4 24 62 285 295 312 318 313 305 301 277 280 278 271 262 252 249 248 246 239 234 229 228 227 232 231 227 225
147 149 149 146 137 120 99 80 61 49 25 17 6 350 349 354 3 11 322 326 329 318 312 308 296 281 267 276 280 274 259 250 246 242 240 237 232 230 226 226 227 229 228
177 180 176 169 170 144 116 112 99 10 336 342 341 346 351 352 353 346 328 316 309 286 276 284 288 299 293 292 294 294 277 253 245 240 237 238 237 233 226 220 218 219 223
199 202 202 198 188 174 142 136 141 145 288 289 315 332 344 346 339 333 311 296 287 277 283 281 257 291 292 306 296 307 313 313 282 245 235 236 239 235 231 225 219 217 217
212 209 206 204 199 193 164 113 73 37 357 338 328 325 329 332 328 322 307 288 277 249 257 260 233 228 266 289 254 264 301 304 315 291 251 242 241 238 236 231 226 221 217
219 209 203 198 199 200 177 172 177 192 252 261 275 290 304 311 314 312 308 298 279 260 258 259 233 218 224 266 286 249 245 260 285 306 300 271 259 249 244 242 236 226 220
212 200 196 192 202 204 194 190 194 227 242 271 287 293 297 303 303 301 301 300 286 268 260 257 251 228 216 230 245 264 267 262 247 270 293 309 302 268 253 244 240 231 223
195 185 180 182 208 213 214 214 215 240 259 277 284 285 288 292 294 292 289 287 281 273 268 261 252 243 231 232 239 238 240 255 264 262 280 298 297 285 270 246 235 231 225